Regional Weather Roundup
Issued by NWS Cleveland, OH

Home | Current Version | Previous Version | Text Only | Print | Product List | Glossary Off
Versions: 1 2 3 4 5 6 7 8 9 10 11 12 13 14 15 16 17 18 19 20 21 22 23 24 25 26 27 28 29 30 31 32 33 34 35 36 37 38 39 40 41 42 43 44 45 46 47 48 49 50

000
ASUS41 KCLE 050710
RWRCLE
OHIO REGIONAL WEATHER ROUNDUP
NATIONAL WEATHER SERVICE WILMINGTON, OH
300 AM EDT WED AUG 05 2015

NOTE: "FAIR" INDICATES FEW OR NO CLOUDS BELOW 12,000 FEET WITH NO
SIGNIFICANT WEATHER AND/OR OBSTRUCTIONS TO VISIBILITY.

OHZ001>008-015>018-024>027-034-035-043-044-050800-
   NORTHWEST OHIO

CITY           SKY/WX    TMP DP  RH WIND       PRES   REMARKS
DEFIANCE       CLEAR     61  57  87 CALM      30.02S
FINDLAY        CLEAR     62  58  86 CALM      30.01S
TOLEDO EXPRESS CLEAR     63  55  75 NW6       30.01R
TOLEDO EXEC    CLEAR     63  55  75 NW6       30.02R
LIMA           CLEAR     61  58  90 CALM      30.03S
$$

OHZ009>014-019>023-028>033-038-089-050800-
   NORTHEAST OHIO

CITY           SKY/WX    TMP DP  RH WIND       PRES   REMARKS
CLE-HOPKINS    PTCLDY    63  59  87 SW7       30.01S
CLE-LAKEFRONT  CLEAR     73  60  63 W12       29.97S
CUY CO. ARPT   NOT AVBL
LORAIN-ELYRIA  CLEAR     62  57  83 W5        30.00S
ASHTABULA      CLEAR     58  57  97 CALM      29.98S
AKRON-CANTON   CLEAR     63  56  78 NW7       30.00F
WOOSTER        CLEAR     59  56  89 W5        30.01F
MANSFIELD      CLEAR     63  57  81 W5        30.02S
YOUNGSTOWN     MOCLDY    62  56  80 W7        29.98F
$$

OHZ042-051>053-060>062-070>072-077>081-050800-
  SOUTHWEST OHIO

CITY           SKY/WX    TMP DP  RH WIND       PRES   REMARKS
CINC-COVINGTON CLOUDY    70  62  76 N3        30.03R
CINC-LUNKEN    CLOUDY    66  65  96 CALM      30.02S
HAMILTON       CLOUDY    66  64  93 CALM      30.03R
DAYTON         MOCLDY    64  59  83 NW5       30.04S
WRIGHT-PAT AFB MOCLDY    64  62  91 CALM      30.02F
DAYTON GENERAL CLOUDY    67  57  70 N5        30.02F
WILMINGTON     CLOUDY    66  60  81 CALM      30.02F
$$

OHZ036-037-039>041-045>050-054>059-063>069-073>076-082>088-050800-
  CENTRAL AND SOUTHEAST OHIO

CITY           SKY/WX    TMP DP  RH WIND       PRES   REMARKS
COLUMBUS       CLOUDY    65  60  84 CALM      30.01S
OSU AIRPORT    MOCLDY    62  60  93 W5        30.02S
BOLTON FIELD   MOCLDY    62  61  96 CALM      30.02F
RICKENBACK AFB CLOUDY    63  60  90 CALM      30.01S
NEWARK         MOCLDY    60  58  92 CALM      30.01S
MARION         CLEAR     63  58  83 W3        30.02S
LANCASTER      CLOUDY    61  58  90 CALM      30.02S
ZANESVILLE     MOCLDY    62  58  86 CALM      30.01F
NEW PHILLY     CLEAR     58  57  97 CALM      30.01S
$$



USA.gov is the U.S. government's official web portal to all federal, state and local government web resources and services.